Find Kosmos-1435

NORAD ID: 13767 Int'l Des: 1983-002 Owner: GUKOS Country: SU operational
LEOCIRCULAR

Live-Position

3D-Globus wird geladen...

Über Kosmos-1435

Beschreibung wird geladen...

Nächste Überflüge

Passes for default location (London). Set your location on the main map for personalized predictions.

Höhenverlauf

Loading altitude history...

Zweizeiliger Elementsatz

1 13767U 83002G 26104.49597512 -.00000017 00000-0 -40066-5 0 9993
2 13767 74.0251 190.3744 0034722 250.4299 122.0584 12.55712306981745
Epoch: 14. Apr. 2026 • Age: 10 hours

Aktueller Status

Höhe 1461.0 km
Geschwindigkeit 7.13 km/s
Subsatellitenpunkt 47.44°N, 177.3°E
Startdatum 19. Jan. 1983
Alter 43.2 years
Typ other

Technische Details

Klassifizierung Payload
Masse 60.00 kg
Trockenmasse 60.00 kg
Gesamtmasse 60.00 kg
Länge 0.80 m
Durchmesser 0.80 m
Spannweite 0.80 m
Form Poly
Hersteller NPOPM
Bus-Typ Strela-1 11F625
Phasenstatus In Orbit
Besitzer/Staat GUKOS/SU

Most Searched